Location: Alladorf
(49.9620°N, 11.3790°E)
Time: 21:03:02
(UTC+00:00)

USA 305 - Pass Details

Date: 29 November 2020
Orbit: 565 x 578 km, 54.0° (Epoch: 22 January)

Event Time Altitude Azimuth Distance (km) Brightness Sun altitude
Exits shadow 05:40:58 15° 296° (WNW) 1,618 4.5 -10.5°
Maximum altitude 05:44:33 69° 19° (NNE) 622 3.1 -10.0°
Drops below altitude 10° 05:48:51 10° 103° (ESE) 1,890 7.1 -9.3°
Sets 05:51:07 0° 106° (ESE) 2,785 8.7 -9.0°
